Home   Weather   Itzehoe   Past weeks

Flag for Germany Past Weather in Itzehoe, Schleswig-Holstein, Germany — Yesterday and Last 2 Weeks

Now
43 °F

Passing clouds.


Feels Like: 38 °F
Forecast: 41 / 46 °F
Wind: 8 mph from Southwest

Location: Hohn

Current Time: Dec 7, 2016 at 5:44:58 pm

Latest Report: Dec 7, 2016 at 4:20 pm


Visibility: 4 mi

Pressure: 30.21 "Hg

Humidity: 87%

Dew Point: 39 °F

Location of ItzehoeLocation

Past Weather in Itzehoe — Graph

°F

Itzehoe Temperature Yesterday

Maximum temperature yesterday: 45 °F (at 11:20 am)
Minimum temperature yesterday: 39 °F (at 6:20 pm)
Average temperature yesterday: 42 °F

High & Low Weather Summary for the Past Weeks

 TemperatureHumidityPressure
High52 °F (Nov 23, 12:20 pm)100% (Nov 23, 7:20 pm)30.54 "Hg (Nov 23, 7:20 pm)
Low19 °F (Nov 29, 3:20 am)53% (Nov 27, 2:20 pm)29.86 "Hg (Nov 22, 4:20 pm)
Average37 °F86%30.24 "Hg
* Reported Nov 22 4:20 pm — Dec 7 4:20 pm, Itzehoe, Weather by CustomWeather, © 2016

Note: Actual official high and low records may vary slightly from our data, if they occured in-between our weather recording intervals... More about our weather records

Advertising

Itzehoe Weather History for the Previous 24 Hours

Scroll right to see more
 ConditionsComfort  
Time TempWeatherWind HumidityBarometerVisibility
4:20 pm
Wed, Dec 7
43 °FPassing clouds.8 mph87%30.21 "Hg4 mi
3:20 pm41 °FPartly sunny.9 mph87%30.24 "Hg4 mi
2:20 pm41 °FLow clouds.8 mph87%30.24 "Hg4 mi
1:20 pm39 °FOvercast.9 mph87%30.27 "Hg4 mi
12:20 pm39 °FLight rain. Partly sunny.10 mph81%30.27 "Hg4 mi
11:20 am37 °FPartly sunny.10 mph81%30.30 "Hg4 mi
10:20 am36 °FLight rain. Fog.12 mph87%30.33 "Hg3 mi
9:20 am36 °FLight rain. Broken clouds.7 mph81%30.33 "Hg4 mi
8:20 am36 °FPassing clouds.9 mph75%30.33 "Hg5 mi
7:20 am36 °FPassing clouds.7 mph75%30.36 "HgN/A
6:20 am36 °FPassing clouds.7 mph75%30.39 "HgN/A
5:20 am36 °FPassing clouds.9 mph75%30.39 "HgN/A
2:20 am36 °FChilly.2 mph81%30.48 "HgN/A
1:20 am37 °FChilly.5 mph75%30.48 "HgN/A
12:20 am37 °FChilly.5 mph81%30.48 "HgN/A
11:20 pm
Tue, Dec 6
39 °FChilly.3 mph75%30.48 "HgN/A
10:20 pm39 °FPassing clouds.5 mph81%30.48 "HgN/A
9:20 pm39 °FPassing clouds.6 mph81%30.48 "HgN/A
8:20 pm39 °FPassing clouds.5 mph81%30.48 "HgN/A
6:20 pm39 °FPassing clouds.2 mph87%30.48 "HgN/A
5:20 pm41 °FPassing clouds.5 mph87%30.48 "HgN/A
Weather by CustomWeather, © 2016

See weather overviewHow to use our weather pages